This is the latest recevied weather packets stored in our database for station/object WB9PAR. If no packets are shown the sender has not sent any weather packets the latest 10 day(s).
| Time | Temp. | Humidity | Pressure | Rain* | Wind** | Luminosity | Snow |
|---|---|---|---|---|---|---|---|
| 1788561135 | 31.67° C | 67% | 1044.7 hPa | 0 mm | - | 73 W/m² | - |
| 1788560830 | 32.22° C | 67% | 1044.5 hPa | 0 mm | - | 68 W/m² | - |
| 1788560527 | 32.22° C | 66% | 1044.4 hPa | 0 mm | - | 72 W/m² | - |
| 1788560225 | 32.78° C | 63% | 1044.5 hPa | 0 mm | - | 67 W/m² | - |
| 1788559921 | 32.78° C | 62% | 1044.7 hPa | 0 mm | - | 113 W/m² | - |
| 1788559615 | 32.78° C | 65% | 1044.6 hPa | 0 mm | - | 188 W/m² | - |
| 1788559311 | 32.78° C | 64% | 1044.4 hPa | 0 mm | - | 168 W/m² | - |
| 1788559010 | 32.78° C | 64% | 1044.6 hPa | 0 mm | - | 176 W/m² | - |
| 1788558706 | 32.78° C | 64% | 1044.7 hPa | 0 mm | - | 226 W/m² | - |
| 1788558401 | 32.78° C | 63% | 1044.5 hPa | 0 mm | - | 219 W/m² | - |
| 1788558097 | 33.33° C | 62% | 1044.4 hPa | 0 mm | - | 264 W/m² | - |
| 1788557795 | 33.33° C | 61% | 1044.4 hPa | 0 mm | - | 205 W/m² | - |
| 1788557492 | 33.33° C | 58% | 1044.6 hPa | 0 mm | - | 287 W/m² | - |
| 1788557192 | 33.33° C | 56% | 1044.5 hPa | 0 mm | - | 316 W/m² | - |
| 1788556887 | 33.89° C | 55% | 1044.7 hPa | 0 mm | - | 338 W/m² | - |
| 1788556586 | 33.89° C | 56% | 1044.4 hPa | 0 mm | - | 353 W/m² | - |
| 1788556282 | 33.33° C | 58% | 1044.6 hPa | 0 mm | - | 368 W/m² | - |
| 1788555981 | 32.78° C | 61% | 1044.4 hPa | 0 mm | - | 381 W/m² | - |
| 1788555677 | 32.22° C | 60% | 1044.7 hPa | 0 mm | - | 398 W/m² | - |
| 1788555373 | 32.22° C | 61% | 1044.9 hPa | 0 mm | - | 416 W/m² | - |
| 1788555069 | 32.22° C | 61% | 1044.9 hPa | 0 mm | - | 430 W/m² | - |
| 1788554764 | 32.78° C | 65% | 1045 hPa | 0 mm | - | 447 W/m² | - |
| 1788554461 | 32.78° C | 65% | 1045.2 hPa | 0 mm | - | 464 W/m² | - |
| 1788554156 | 32.78° C | 65% | 1045.2 hPa | 0 mm | - | 471 W/m² | - |
| 1788553853 | 33.33° C | 63% | 1045.2 hPa | 0 mm | - | 132 W/m² | - |
* Rain latest hour (hover to see other rain measurements)
** Current wind speed in m/s (hover to see current wind gust speed)